THORAD DELTA 1 DEB, 42594

Orbit data source: Space-Track

THORAD DELTA 1 DEB, 42594 is space debris in SSO originally from a launch on Fri, 15 Nov 1974 UTC launched from the Air Force Western Test Range (AFWTR). Debris objects in space refer to the collection of defunct objects orbiting the Earth. Examples of debris include non-operational satellites, rocket bodies, and fragments generated from explosions, collisions, or faulty payload assembly.

Loading next visibility...
Identifier
42594, 1974-089FK
Orbit
SSO
Country
Flag of USUS
Related business
Manufacturer
Unknown
Mission
Spacecraft
Bus & Motor
Unknown
Mass
Unknown
Launch date (UTC)
1974-11-15 (51 years ago)
Launch vehicle
Unknown
Launch site
Air Force Western Test Range (AFWTR)
Object type
Payload
Rocket body
Debris
Shape & HBR
Unknown shape, 1.1 m
Radar Cross Section
Small (<0.1 m²)

Expand to show TLE details & history
Last TLE update: 2 months ago

TLE from 2 months ago
0 THORAD DELTA 1 DEB
1 42594U 74089FK  25238.89178589  .00000121  00000-0  13970-2 0  9993
2 42594 100.8648 205.3459 0174829  71.0062 320.0959 12.22472385629694
Epoch: 2025-08-26T21:24Z
TLE epoch observation values (Epoch: 2025-08-26T21:24:10.300Z)
Latitude
29.25472°
Longitude
-97.21524°
Altitude
1,479.394 km
Speed
7.173 km/s
True Right ascension
13h 16m 49s
True Declination
29° 07' 18"
Sunlit
Object was in daylight at epoch
Visualization orbit readout
Latitude
Unknown
Longitude
Unknown
Altitude
Unknown
Speed
Unknown
Apparent Right ascension
Unknown
Apparent Declination
Unknown
Sunlit
N/A
Visualization observer readout
Local Sidereal Time
07:52:29
Azimuth
Unknown
Elevation
Unknown
Doppler factor
Unknown
Orbital elements
Apogee altitude
1,718.443 km
Perigee altitude
1,440.204 km
Semi-major axis
7,957.461 km
Eccentricity
0.01748
Inclination
100.8648°
RAAN
205.3459°
Arg. of periapsis
71.0062°
True anomaly
318.78893°
Mean anomaly
320.0959°
Eccentric anomaly
319.44461°
Mean motion
3.05761 °/min
Orbital period
117.74 mins
BSTAR
0.001397
Loading maneuver chart data...
Computing Atmospheric mass density...

Documentation

Showing up to 5 results
|